Regional Weather Roundup
Issued by NWS

Home | Current Version | Previous Version | Graphics & Text | Print | Product List | Glossary Off
Versions: 1 2 3 4 5 6 7 8 9 10 11 12 13 14 15 16 17 18 19 20 21 22 23 24 25 26 27 28 29 30 31 32 33 34 35 36 37 38 39 40 41 42 43 44 45 46 47 48 49 50

000
ASUS43 KDTX 221201
RWRMI
MICHIGAN HOURLY REGIONAL WEATHER ROUNDUP
NATIONAL WEATHER SERVICE DETROIT/PONTIAC MI
700 AM EST THU FEB 22 2018

NOTE: "FAIR" INDICATES FEW OR NO CLOUDS BELOW 12,000 FEET WITH NO
SIGNIFICANT WEATHER AND/OR OBSTRUCTION TO VISIBILITY.

MIZ047>049-052>055-059>063-066>070-074>076-081>083-221300-
SOUTHEAST LOWER MICHIGAN

CITY           SKY/WX    TMP DP  RH WIND       PRES   REMARKS
ADRIAN         CLOUDY    30  25  81 E12       30.55S WCI  20
6HR MIN TEMP:  30; 6HR MAX TEMP:  32;

ALMA           CLOUDY    29  28  93 NE8       30.62R WCI  21
6HR MIN TEMP:  28; 6HR MAX TEMP:  30;

ANN ARBOR      MOCLDY    29  25  85 NE8       30.55F WCI  21
BAD AXE        CLOUDY    28  23  83 E8        30.64S WCI  20
6HR MIN TEMP:  25; 6HR MAX TEMP:  28;

CARO           MOCLDY    28  24  82 E6        30.63R WCI  22
DETROIT CITY   CLOUDY    29  22  75 NE8       30.59S WCI  21
6HR MIN TEMP:  29; 6HR MAX TEMP:  30;

DETROIT        CLOUDY    31  23  72 NE10      30.58S WCI  22
6HR MIN TEMP:  31; 6HR MAX TEMP:  32;

FLINT          FAIR      28  24  85 E12       30.59F WCI  18
6HR MIN TEMP:  28; 6HR MAX TEMP:  30;

GROSSE ILE     CLOUDY    31  25  80 NE13      30.57S WCI  21
6HR MIN TEMP:  30; 6HR MAX TEMP:  31;

HILLSDALE      CLOUDY    30  27  86 E10       30.51R WCI  21
HOWELL         FAIR      29  26  89 E8        30.56F WCI  21
6HR MIN TEMP:  29; 6HR MAX TEMP:  31;


CITY           SKY/WX    TMP DP  RH WIND       PRES   REMARKS
JACKSON        FAIR      30  26  85 NE8       30.55R WCI  22
6HR MIN TEMP:  30; 6HR MAX TEMP:  32;

LAMBERTVILLE   CLOUDY    31  26  83 NE10G16   30.54F WCI  22
6HR MIN TEMP:  31; 6HR MAX TEMP:  32;

LANSING        FAIR      30  26  85 E8        30.60R WCI  22
6HR MIN TEMP:  29; 6HR MAX TEMP:  30;

LAPEER         CLOUDY    28  24  83 E8        30.61S WCI  20
6HR MIN TEMP:  28; 6HR MAX TEMP:  29;

MASON          FAIR      31  26  80 NE6       30.57R WCI  25
6HR MIN TEMP:  31; 6HR MAX TEMP:  33;

MONROE         CLOUDY    31  24  75 NE7       30.56S WCI  24
6HR MIN TEMP:  31; 6HR MAX TEMP:  32;

MT. CLEMENS    CLOUDY    29  27  91 NE10      30.59S WCI  20
6HR MIN TEMP:  29; 6HR MAX TEMP:  29;

PONTIAC        CLOUDY    27  23  85 NE10      30.56S WCI  17
6HR MIN TEMP:  27; 6HR MAX TEMP:  29;

PORT HOPE        N/A     29  23  78 E16       30.63S WCI  17
6HR MIN TEMP:  29; 6HR MAX TEMP:  30;

PORT HURON     FAIR      28  21  74 NE9       30.61S WCI  20
TRI CITIES     CLOUDY    29  24  82 NE9       30.64R WCI  20
6HR MIN TEMP:  29; 6HR MAX TEMP:  30;

MIDLAND        MOCLDY    29  24  83 NE7       30.64R WCI  22
6HR MIN TEMP:  28; 6HR MAX TEMP:  29;

TROY           FAIR      30  24  79 NE7       30.60F WCI  23
SAGINAW HB     CLOUDY    30  27  86 E12       30.63R WCI  21
$$
MIZ043>046-050>051-056>058-064>065-071>073-077>080-221300-
SOUTHWEST LOWER MICHIGAN

CITY           SKY/WX    TMP DP  RH WIND       PRES   REMARKS
BATTLE CREEK   FAIR      31  27  85 NE8       30.55R WCI  23
6HR MIN TEMP:  31; 6HR MAX TEMP:  32;

BENTON HARBOR  FAIR      31  25  78 NE3       30.54F
6HR MIN TEMP:  29; 6HR MAX TEMP:  31;

BIG RAPIDS     CLOUDY    26  22  84 E6        30.60R WCI  19
6HR MIN TEMP:  23; 6HR MAX TEMP:  26;

COLDWATER      FAIR      32  29  89 NE7       30.53R WCI  26
6HR MIN TEMP:  32; 6HR MAX TEMP:  33;

HOLLAND        FAIR      31  23  72 E8        30.56F WCI  23
6HR MIN TEMP:  28; 6HR MAX TEMP:  31;

GRAND RAPIDS   CLOUDY    30  24  78 E8        30.56S WCI  22
6HR MIN TEMP:  28; 6HR MAX TEMP:  30;

IONIA          MOCLDY    30  28  90 E9        30.58R WCI  22
6HR MIN TEMP:  30; 6HR MAX TEMP:  30;

KALAMAZOO      FAIR      32  27  81 E7        30.52F WCI  26
6HR MIN TEMP:  32; 6HR MAX TEMP:  32;

LUDINGTON      CLOUDY    25  21  85 NE3       30.62R
6HR MIN TEMP:  22; 6HR MAX TEMP:  25;

MARSHALL       FAIR      31  28  89 NE5       30.55R WCI  26
6HR MIN TEMP:  31; 6HR MAX TEMP:  32;

MOUNT PLEASANT CLOUDY    29  25  84 E6        30.61S WCI  23
6HR MIN TEMP:  28; 6HR MAX TEMP:  29;

MUSKEGON       MOCLDY    28  20  71 NE6       30.60R WCI  22
6HR MIN TEMP:  25; 6HR MAX TEMP:  28;

SOUTH HAVEN    FAIR      31  26  82 NE7       30.54F WCI  24
$$
MIZ016>042-221300-
NORTHERN LOWER MICHIGAN

CITY           SKY/WX    TMP DP  RH WIND       PRES   REMARKS
ALPENA         MOCLDY    20  18  92 CALM      30.66F
6HR MIN TEMP:  18; 6HR MAX TEMP:  21;

BEAVER ISLAND  FAIR      14  12  92 CALM      30.67R
6HR MIN TEMP:  14; 6HR MAX TEMP:  15;

BELLAIRE       FAIR      20  19  98 CALM      30.66R
6HR MIN TEMP:  18; 6HR MAX TEMP:  20;

CADILLAC       CLOUDY    22  21  93 E5        30.57R WCI  16
CHARLEVOIX     FAIR      19  18  93 CALM      30.69R
6HR MIN TEMP:  19; 6HR MAX TEMP:  19;

FRANKFORT      CLOUDY    25  17  72 CALM      30.65R
GAYLORD        FAIR      19  17  92 CALM      30.59S
6HR MIN TEMP:  18; 6HR MAX TEMP:  19;

HARBOR SPRINGS FAIR      16  14  92 NE3       30.65R
HOUGHTON LAKE  CLOUDY    23  19  85 E6        30.61R WCI  16
6HR MIN TEMP:  20; 6HR MAX TEMP:  23;

MANISTEE       CLOUDY    23  19  85 E3        30.64R
OSCODA         FAIR      24  19  80 CALM      30.65S
6HR MIN TEMP:  22; 6HR MAX TEMP:  24;

PELLSTON       FAIR      13  10  88 CALM      30.66S
6HR MIN TEMP:  11; 6HR MAX TEMP:  15;

ROGERS CITY    CLOUDY    19  17  91 CALM      30.67S
TRAVERSE CITY  CLOUDY    24  18  77 CALM      30.64R
6HR MIN TEMP:  22; 6HR MAX TEMP:  24;

$$
MIZ007>008-015-221300-
EASTERN UPPER MICHIGAN

CITY           SKY/WX    TMP DP  RH WIND       PRES   REMARKS
KINROSS        FAIR       9   7  92 SE7       30.66S WCI  -2
6HR MIN TEMP:   7; 6HR MAX TEMP:  11;

MACKINAC ISLAN FAIR      18  15  89 E6        30.66R WCI  10
6HR MIN TEMP:  15; 6HR MAX TEMP:  20;

NEWBERRY       FAIR       6   6  97 SW5       30.65R WCI  -2
6HR MIN TEMP:   1; 6HR MAX TEMP:  10;

S. S. MARIE    FAIR       7   3  84 E5        30.67R WCI  -2
6HR MIN TEMP:   7; 6HR MAX TEMP:  13;

MUNISING         N/A      1  -1  91 S8        30.67R WCI -13
6HR MIN TEMP:   1; 6HR MAX TEMP:   8;

$$
MIZ004>006-011>014-085-221300-
CENTRAL UPPER MICHIGAN

CITY           SKY/WX    TMP DP  RH WIND       PRES   REMARKS
MANISTIQUE     FAIR       6   4  94 CALM      30.66R
6HR MIN TEMP:   5; 6HR MAX TEMP:  10;

ESCANABA       FAIR       5   2  87 CALM      30.68R
6HR MIN TEMP:   4; 6HR MAX TEMP:  13;

MENOMINEE      FAIR      17  11  77 NW3       30.68R
6HR MIN TEMP:  15; 6HR MAX TEMP:  17;

SAWYER-GWINN   CLEAR     -2  -6  84 CALM      30.63R
$$
MIZ001>003-009>011-084-221300-
WESTERN UPPER MICHIGAN

CITY           SKY/WX    TMP DP  RH WIND       PRES   REMARKS
IRON MOUNTAIN  FAIR       6   2  83 N3        30.63R
6HR MIN TEMP:   2; 6HR MAX TEMP:   7;

HOUGHTON       FAIR       6   0  76 SW3       30.61R
6HR MIN TEMP:  -2; 6HR MAX TEMP:  14;

COPPER HARBOR    N/A     11   5  77 W8        30.64R WCI  -1
6HR MIN TEMP:   8; 6HR MAX TEMP:  16;

IRONWOOD       FAIR     -10 -14  82 CALM      30.61S
6HR MIN TEMP: -10; 6HR MAX TEMP:   7;

$$

ABBREVIATIONS USED IN REMARKS
   TC - TEMPERATURE IN CELSIUS
  WCI - WIND CHILL INDEX
   HX - HEAT INDEX
  VSB - VISIBILITY





USA.gov is the U.S. government's official web portal to all federal, state and local government web resources and services.